[[{"header":{"parameterUnit":"m.s-1","parameterCategory":1,"la1":30.2991,"la2":30.254,"lo1":-89.0895,"lo2":-89.0444,"dy":0.0017,"dx":0.0017,"nx":28,"ny":28,"refTime":"2024-10-01T09:00:00:Z","depth":0,"parameterNumber":2,"parameterNumberName":"U-component_of_WINDS"},"data":[0,0,0,0,0,0,0,0,0,0,0,0,0,0,0,0,0,0,0,0,0,0,0,0,0,0,0,0,0,0,0,0,0,0,0,0,0,0,0,0,0,0,0,0,0,0,0,0,0,0,0,0,0,0,0,0,0,0,-0.0096,-0.0095,0,-0.0002,-0.0001,0.0,0.0044,0.0044,0.0044,0.0044,0.0144,0.0146,0.0149,0,0,0,0,0,0,0,0,0,0,0,0,0,-0.0233,-0.0231,-0.0096,-0.0095,-0.0094,-0.0002,-0.0001,0.0001,0.0044,0.0044,0.0044,0.0044,0.0143,0.0146,0.0149,0,0,0,0,0,0,0,0,0,0,0,0,0,-0.016,-0.023,-0.0096,-0.0061,-0.0057,-0.0002,-0.0001,0.0001,0.0044,0.0044,0.0044,0.0044,0.0142,0.0146,0.015,0.0177,0,0,0.0162,0.0164,0,0,0,0,0,0,0,0,-0.0164,-0.0155,-0.0067,-0.0063,-0.0059,0.0009,-0.0012,0.006,0.0044,0.0006,0.0044,0.0044,0.0099,0.0107,0.0125,0.0182,0.0186,0.0163,0.0165,0.0167,0.0168,0,0,0,0,0,0,0,-0.0169,-0.0158,-0.0059,-0.0066,-0.0061,-0.0048,-0.0038,0.0002,0.0052,0.0009,0.0013,0.0023,0.0102,0.0121,0.0128,0.0188,0.0163,0.0166,0.0169,0.017,0.0275,0.0276,0,0,0,0,0,0,-0.018,-0.0163,-0.0062,-0.0056,-0.0113,-0.0046,-0.0034,-0.0012,0.0052,0.0062,0.0023,0.0025,0.0114,0.0123,0.0131,0.017,0.0167,0.0171,0.0173,0.0275,0.0275,0.0276,0,0,0,0,0,0,-0.0183,-0.0172,-0.0065,-0.0108,-0.0094,-0.0043,-0.0019,-0.001,0.0009,0.0062,0.0072,0.0033,0.0114,0.0126,0.0166,0.0173,0.0173,0.0176,0.0275,0.0275,0.0276,0.0245,0,0,0,0,0,0,-0.0188,-0.0173,-0.0164,-0.0109,-0.0092,-0.0034,-0.0019,-0.0009,0.0015,0.0018,0.0074,0.0083,0.0115,0.016,0.017,0.0179,0.018,0.0274,0.0275,0.0275,0.0245,0.0244,0.0243,0,0,0,0,0,-0.0193,-0.0176,-0.0163,-0.0151,-0.0079,-0.0034,-0.0024,0.0011,0.0016,0.0027,0.0062,0.0082,0.0171,0.0163,0.0175,0.0186,0.0274,0.0275,0.0275,0.0246,0.0244,0.0243,0,0,0,0,0,0,-0.0231,-0.0168,-0.0154,-0.0119,-0.0082,-0.0027,-0.0012,0.0008,0.0045,0.0046,0.009,0.0102,0.0139,0.0167,0.0157,0.0217,0.0224,0.0228,0.0198,0.0197,0.0196,0.0189,0.0183,0,0,0,0,0,-0.0235,-0.0205,-0.0152,-0.0126,-0.0108,-0.0063,-0.0042,-0.0018,0.0022,0.0038,0.0076,0.0115,0.0153,0.0176,0.0213,0.025,0.0264,0.0263,0.0262,0.0261,0.0263,0.0287,0.0288,0.0278,0.0278,0.0278,0,0,-0.0244,-0.0206,-0.019,-0.0133,-0.0101,-0.0069,-0.0051,-0.0018,0.0007,0.0043,0.0084,0.0113,0.0161,0.0199,0.0219,0.0224,0.0269,0.0262,0.026,0.0264,0.0288,0.0289,0.0289,0.0279,0.0279,0.0279,0,0,-0.0244,-0.0213,-0.0187,-0.0156,-0.0109,-0.0079,-0.0073,-0.0019,0.0001,0.0043,0.0072,0.0103,0.0165,0.0198,0.0223,0.0239,0.026,0.025,0.0244,0.0267,0.0268,0.0269,0.0276,0.0278,0.0252,0.0252,0.0252,0,-0.0261,-0.0213,-0.0177,-0.0145,-0.012,-0.0085,-0.0058,-0.0029,0.0029,0.0046,0.0051,0.0132,0.0166,0.0214,0.0218,0.0237,0.0247,0.0244,0.0264,0.0266,0.0267,0.0275,0.0277,0.0251,0.0251,0.0251,0.0251,0,-0.0235,-0.0202,-0.0186,-0.0132,-0.0105,-0.0076,-0.0033,-0.001,0.0013,0.0043,0.0087,0.0129,0.0176,0.019,0.0212,0.0242,0.0244,0.0256,0.0264,0.0266,0.0274,0.0277,0.0249,0.0249,0.025,0.025,0,0,-0.0257,-0.0182,-0.0177,-0.0151,-0.0095,-0.0068,-0.0036,0.001,0.003,0.0069,0.0098,0.0152,0.0164,0.0192,0.0219,0.0239,0.0251,0.0249,0.0251,0.0249,0.0289,0.028,0.0283,0.0265,0.0266,0.0266,0.0286,0,-0.0248,-0.0191,-0.0156,-0.0112,-0.0079,-0.0045,-0.0016,0.0022,0.0052,0.0085,0.0119,0.0157,0.0169,0.0187,0.0208,0.0245,0.026,0.0244,0.0295,0.0296,0.0282,0.0287,0.0277,0.0293,0.0289,0.0289,0.029,0,-0.0231,-0.0193,-0.0146,-0.0092,-0.0077,-0.0052,-0.0006,0.0025,0.007,0.0091,0.0124,0.0151,0.0189,0.0194,0.0247,0.0236,0.0259,0.0281,0.0282,0.0289,0.0293,0.0294,0.0299,0.0302,0.0295,0.0294,0.0294,0,-0.025,-0.0187,-0.015,-0.0129,-0.0066,-0.0049,-0.0021,0.0024,0.005,0.0091,0.0109,0.0154,0.0179,0.0214,0.0254,0.0253,0.0304,0.0312,0.0324,0.0323,0.0333,0.0332,0.0343,0.0347,0.0347,0.0347,0.0347,0,-0.0244,-0.0216,-0.0158,-0.0135,-0.0102,-0.0061,-0.0028,0.0002,0.0043,0.0074,0.0107,0.0136,0.0185,0.0221,0.0252,0.0294,0.0304,0.0323,0.0332,0.0321,0.0319,0.0337,0.0337,0.0347,0.0347,0.0347,0.0347,0,-0.026,-0.0221,-0.0178,-0.012,-0.0105,-0.0083,-0.0033,-0.0008,0.0024,0.0063,0.0075,0.0126,0.017,0.0213,0.0272,0.0293,0.0334,0.0345,0.0319,0.0323,0.0333,0.0332,0.0356,0.0363,0.0361,0.0361,0.0361,0,-0.0259,-0.0236,-0.0176,-0.0154,-0.0127,-0.0091,-0.0064,-0.0021,0.0006,0.006,0.0079,0.0125,0.0164,0.0234,0.0277,0.0323,0.0336,0.0341,0.0343,0.0332,0.0337,0.0336,0.0339,0.034,0.034,0.0339,0.0339,0,-0.0259,-0.024,-0.0204,-0.0159,-0.0128,-0.0091,-0.0052,-0.0035,0.0016,0.0045,0.009,0.012,0.0181,0.0227,0.0279,0.0309,0.0334,0.0339,0.0344,0.0334,0.0318,0.0328,0.0316,0.0338,0.0338,0.0338,0.0338,0.0338,-0.0266,-0.0243,-0.0197,-0.0157,-0.0123,-0.0087,-0.0061,-0.0025,0.0013,0.0065,0.0089,0.0135,0.0183,0.0254,0.0285,0.0323,0.0329,0.0336,0.0338,0.034,0.0338,0.0311,0.0332,0.0332,0.0332,0.0332,0.0332,0,-0.0264,-0.0232,-0.0195,-0.0142,-0.0109,-0.009,-0.0045,-0.0019,0.0021,0.0063,0.0101,0.0154,0.02,0.0248,0.0297,0.0318,0.0331,0.033,0.0329,0.0336,0.0329,0.032,0.0319,0.0319,0.0319,0.0319,0.0319,0.0319,-0.0259,-0.0219,-0.0195,-0.0137,-0.0105,-0.006,-0.0036,-0.0002,0.0032,0.0089,0.0127,0.0158,0.0203,0.0256,0.03,0.0313,0.033,0.0326,0.0343,0.0335,0.0336,0.0337,0.0329,0.0329,0.0329,0.0347,0.0347,0.0347]},{"header":{"parameterUnit":"m.s-1","parameterCategory":1,"la1":30.2991,"la2":30.254,"lo1":-89.0895,"lo2":-89.0444,"dy":0.0017,"dx":0.0017,"nx":28,"ny":28,"refTime":"2024-10-01T09:00:00:Z","depth":0,"parameterNumber":3,"parameterNumberName":"V-component_of_WINDS"},"data":[0,0,0,0,0,0,0,0,0,0,0,0,0,0,0,0,0,0,0,0,0,0,0,0,0,0,0,0,0,0,0,0,0,0,0,0,0,0,0,0,0,0,0,0,0,0,0,0,0,0,0,0,0,0,0,0,0,0,-1.6488,-1.6487,0,-1.6443,-1.6443,-1.6442,-1.6515,-1.6517,-1.652,-1.6522,-1.6471,-1.6467,-1.6463,0,0,0,0,0,0,0,0,0,0,0,0,0,-1.6633,-1.663,-1.6488,-1.6487,-1.6487,-1.6443,-1.6443,-1.6442,-1.6514,-1.6517,-1.652,-1.6523,-1.6472,-1.6467,-1.6463,0,0,0,0,0,0,0,0,0,0,0,0,0,-1.6577,-1.6629,-1.6488,-1.6518,-1.652,-1.6443,-1.6443,-1.6442,-1.6514,-1.6517,-1.6521,-1.6525,-1.6473,-1.6468,-1.6462,-1.6353,0,0,-1.6445,-1.6443,0,0,0,0,0,0,0,0,-1.658,-1.6571,-1.6514,-1.6515,-1.6518,-1.6489,-1.6475,-1.6412,-1.6513,-1.6516,-1.6522,-1.6526,-1.6473,-1.6468,-1.6451,-1.6351,-1.6348,-1.6445,-1.6442,-1.6439,-1.6438,0,0,0,0,0,0,0,-1.6584,-1.6574,-1.647,-1.6513,-1.6515,-1.6532,-1.6529,-1.6463,-1.6474,-1.6516,-1.6521,-1.6515,-1.6475,-1.6456,-1.645,-1.6348,-1.6445,-1.644,-1.6437,-1.6435,-1.6159,-1.6155,0,0,0,0,0,0,-1.6585,-1.6577,-1.6471,-1.6469,-1.6559,-1.6527,-1.6522,-1.6494,-1.6475,-1.6475,-1.6512,-1.6519,-1.6464,-1.6457,-1.6449,-1.6322,-1.6439,-1.6434,-1.6431,-1.6163,-1.6158,-1.6154,0,0,0,0,0,0,-1.6587,-1.6574,-1.6473,-1.6524,-1.6513,-1.652,-1.6488,-1.6491,-1.6473,-1.6472,-1.6474,-1.6491,-1.6466,-1.6457,-1.6378,-1.6321,-1.6432,-1.6426,-1.6168,-1.6162,-1.6156,-1.6065,0,0,0,0,0,0,-1.6591,-1.6575,-1.6534,-1.6523,-1.651,-1.6403,-1.6484,-1.6487,-1.6463,-1.6472,-1.6453,-1.6453,-1.6469,-1.6385,-1.6372,-1.6315,-1.6422,-1.6173,-1.6165,-1.6158,-1.6073,-1.6057,-1.6043,0,0,0,0,0,-1.6596,-1.6508,-1.6531,-1.6518,-1.6458,-1.6399,-1.6392,-1.6413,-1.6459,-1.6417,-1.6417,-1.6454,-1.633,-1.6377,-1.6362,-1.6303,-1.6176,-1.6167,-1.6159,-1.608,-1.606,-1.6043,0,0,0,0,0,0,-1.6509,-1.6507,-1.6533,-1.6438,-1.6419,-1.6412,-1.636,-1.6391,-1.6356,-1.6365,-1.6392,-1.6387,-1.6303,-1.6295,-1.6348,-1.6198,-1.6261,-1.6248,-1.6206,-1.6187,-1.6172,-1.6175,-1.6418,0,0,0,0,0,-1.6479,-1.6433,-1.6433,-1.635,-1.6339,-1.6351,-1.6326,-1.6345,-1.6325,-1.6316,-1.6311,-1.6289,-1.6246,-1.6216,-1.6175,-1.6073,-1.6071,-1.6025,-1.601,-1.5998,-1.5986,-1.5934,-1.5915,-1.6124,-1.6125,-1.6125,0,0,-1.6416,-1.6409,-1.6378,-1.6332,-1.6319,-1.627,-1.6343,-1.6287,-1.6252,-1.6307,-1.6233,-1.6229,-1.6206,-1.6116,-1.6076,-1.6107,-1.5928,-1.5986,-1.5976,-1.5972,-1.5923,-1.5903,-1.5885,-1.6118,-1.612,-1.612,0,0,-1.6276,-1.6266,-1.6197,-1.6184,-1.6165,-1.6175,-1.6158,-1.6148,-1.6148,-1.6074,-1.6116,-1.6074,-1.5997,-1.5981,-1.5962,-1.5821,-1.5854,-1.5807,-1.5727,-1.5676,-1.5659,-1.5645,-1.5596,-1.5578,-1.5796,-1.5796,-1.5796,0,-1.6199,-1.6129,-1.6157,-1.61,-1.6079,-1.6132,-1.6062,-1.6047,-1.6015,-1.5999,-1.6035,-1.5944,-1.5932,-1.584,-1.5806,-1.5789,-1.5771,-1.5809,-1.566,-1.5646,-1.5632,-1.5586,-1.5567,-1.5791,-1.5791,-1.5792,-1.5792,0,-1.6036,-1.5987,-1.5933,-1.5905,-1.5878,-1.5814,-1.5833,-1.5803,-1.5825,-1.5831,-1.5757,-1.5746,-1.5706,-1.5685,-1.5705,-1.5597,-1.5617,-1.5656,-1.5719,-1.5607,-1.5563,-1.5546,-1.5783,-1.5785,-1.5786,-1.5788,0,0,-1.5836,-1.5828,-1.5808,-1.5797,-1.5782,-1.5744,-1.5684,-1.5648,-1.5622,-1.5599,-1.5549,-1.5486,-1.5524,-1.5503,-1.5521,-1.5477,-1.5368,-1.5522,-1.5522,-1.5494,-1.525,-1.5221,-1.52,-1.5391,-1.5388,-1.5385,-1.5253,0,-1.5698,-1.5597,-1.5623,-1.5522,-1.5478,-1.5529,-1.5477,-1.5462,-1.5467,-1.5429,-1.5434,-1.539,-1.5442,-1.543,-1.5388,-1.539,-1.532,-1.54,-1.5345,-1.5342,-1.5349,-1.5177,-1.5145,-1.5021,-1.5236,-1.5233,-1.5231,0,-1.5523,-1.5497,-1.5392,-1.5389,-1.5371,-1.5324,-1.5295,-1.5259,-1.5243,-1.525,-1.5229,-1.5258,-1.5199,-1.5265,-1.5185,-1.5239,-1.5218,-1.5216,-1.5212,-1.5207,-1.5279,-1.5168,-1.4981,-1.4962,-1.5204,-1.5207,-1.5208,0,-1.5389,-1.5328,-1.5259,-1.5247,-1.5241,-1.5207,-1.5202,-1.5192,-1.5169,-1.5143,-1.5129,-1.5096,-1.5077,-1.5051,-1.507,-1.5116,-1.4987,-1.5053,-1.4991,-1.499,-1.496,-1.4962,-1.4768,-1.4947,-1.4947,-1.4948,-1.4948,0,-1.5232,-1.5166,-1.5199,-1.5156,-1.5084,-1.5116,-1.5043,-1.5045,-1.5035,-1.4994,-1.5035,-1.4995,-1.5023,-1.4985,-1.5,-1.4932,-1.4923,-1.4927,-1.4932,-1.4923,-1.4923,-1.4909,-1.4918,-1.4943,-1.4944,-1.4945,-1.4946,0,-1.5068,-1.5088,-1.5016,-1.5018,-1.5017,-1.4964,-1.4965,-1.4926,-1.4936,-1.4882,-1.4872,-1.4886,-1.4844,-1.4862,-1.4816,-1.4826,-1.474,-1.4756,-1.4745,-1.475,-1.4686,-1.4692,-1.4477,-1.445,-1.4646,-1.4644,-1.4643,0,-1.4966,-1.4918,-1.4916,-1.4893,-1.4886,-1.4847,-1.4826,-1.4856,-1.4832,-1.4814,-1.4776,-1.4739,-1.471,-1.4641,-1.4647,-1.4613,-1.4629,-1.4556,-1.4623,-1.4618,-1.4628,-1.4631,-1.4627,-1.4541,-1.4539,-1.4537,-1.4536,0,-1.4784,-1.4798,-1.4766,-1.474,-1.4714,-1.4694,-1.4676,-1.4654,-1.4684,-1.4655,-1.4615,-1.4593,-1.4549,-1.4512,-1.4483,-1.4478,-1.4511,-1.4515,-1.4499,-1.4489,-1.4486,-1.4488,-1.4708,-1.4519,-1.4521,-1.4522,-1.4523,-1.4523,-1.4649,-1.4609,-1.4603,-1.4568,-1.4559,-1.4544,-1.4508,-1.4515,-1.4483,-1.4451,-1.4471,-1.4423,-1.4413,-1.4379,-1.4369,-1.4333,-1.4361,-1.4337,-1.4331,-1.4325,-1.4317,-1.4492,-1.4327,-1.4328,-1.4328,-1.4329,-1.4329,0,-1.4469,-1.4469,-1.4437,-1.4414,-1.4387,-1.4425,-1.4409,-1.4383,-1.4342,-1.4331,-1.4304,-1.4258,-1.4223,-1.4228,-1.4196,-1.4166,-1.4181,-1.4157,-1.4159,-1.4158,-1.4293,-1.431,-1.4146,-1.4146,-1.4146,-1.4146,-1.4146,-1.4146,-1.4372,-1.4308,-1.4321,-1.4254,-1.4254,-1.4211,-1.4199,-1.4185,-1.4177,-1.4125,-1.4097,-1.4102,-1.4098,-1.4067,-1.4037,-1.4039,-1.4026,-1.3996,-1.4004,-1.413,-1.4148,-1.4165,-1.4182,-1.3992,-1.3992,-1.3872,-1.3871,-1.387]}]]